ASTROSAT (40930 NORAD) Tracking and Keplerian Element Data

This shows tracking and keplerian element data for the satellite.

Feedback or suggestion? Click here.




ElementValue
Catalog40930
NameASTROSAT
Epoch Orbit17358
Epoch Day347.95302295
Epoch Year2018
RAAN313.157
Inclination5.9965
Eccentricity0.0008675
Argument of Perigee30.9763
Mean Anonmoly329.0875
Mean Motion14.76223852
Decay Rate5.89E-06
L11 40930U 15052A 18347.95302295 .00000589 00000-0 -63860-5 0 9998
L22 40930 5.9965 313.1570 0008675 30.9763 329.0875 14.76223852173584

Live tracking and technical data element details for ASTROSAT (NORAD 40930). ASTROSAT can be tracked NOW for your location showing map with azimuth and elevation plus other details from your city location.

Track the satellite on the map from your city or location and see movement details for azimuth, elevation, latitude, longitude, range, height, and movement on the map or in text.







IsCatalogInMostPopularTable: catalog: 40930, numindb: 99
Update: records affected: 1



GetName: 40930 ASTROSAT

Hit Count: updated at: Sat, 15 Dec 2018 14:01:18 GMT